Showing default

GOSAT 2, 43672

Orbit data source: Space-Track

GOSAT 2, 43672 is a payload satellite owned by JAXA (JP) in SSO that was launched on Mon, 29 Oct 2018 UTC via an H-IIA 202 launch vehicle from the Tanegashima Space Center (TNSTA). Payload-class satellites include a variety of spacecraft equipped with specific instruments for various scientific and technological missions. These include communications satellites like Starlink; space stations such as the ISS; scientific satellites like the Hubble; Earth observation satellites from companies like Planet Labs, Umbra, and HawkEye 360; GPS; miniature CubeSats for education and research; and military/defense satellites.

Loading next visibility...
Identifier
43672, 2018-084B
Orbit
SSO
Country
Flag of JPJP / JPN
Related business
Manufacturer
MELCO
Mission
Operational Civil Science
Bus & Motor
GOSAT, AOCS
Mass
1,750 kg wet, ~1,700 kg dry
Launch date (UTC)
2018-10-29 (7 years ago)
Launch vehicle
H-IIA 202
Launch site
Tanegashima Space Center (TNSTA)
Object type
Payload
Rocket body
Debris
Shape & HBR
Box + 2 Pan, 8.4 m
Radar Cross Section
20.392 m², Large (>1 m²)

Expand to show TLE details & history
Last TLE update: 6 hours ago

TLE from 6 hours ago
0 GOSAT 2
1 43672U 18084B   25289.58562471  .00004006  00000-0  48478-3 0  9991
2 43672  97.8651  39.3236 0001587  97.9612 262.1782 14.84226259377425
Epoch: 2025-10-16T14:03Z
TLE epoch observation values (Epoch: 2025-10-16T14:03:17.974Z)
Latitude
-0.0001°
Longitude
163.15549°
Altitude
619.195 km
Speed
7.549 km/s
True Right ascension
02h 37m 17s
True Declination
0° 00' 00"
Sunlit
Object was in full shadow at epoch
Visualization orbit readout
Latitude
Unknown
Longitude
Unknown
Altitude
Unknown
Speed
Unknown
Apparent Right ascension
Unknown
Apparent Declination
Unknown
Sunlit
N/A
Visualization observer readout
Local Sidereal Time
14:17:32
Azimuth
Unknown
Elevation
Unknown
Doppler factor
Unknown
Orbital elements
Apogee altitude
614.159 km
Perigee altitude
611.94 km
Semi-major axis
6,991.186 km
Eccentricity
0.00016
Inclination
97.8651°
RAAN
39.3236°
Arg. of periapsis
97.9612°
True anomaly
262.16018°
Mean anomaly
262.1782°
Eccentric anomaly
262.16919°
Mean motion
3.71293 °/min
Orbital period
96.96 mins
BSTAR
0.00048478
Loading maneuver chart data...
Computing Atmospheric mass density...

Documentation

Showing up to 5 results
|